Location: Jackson Park
(37.2862°N, 79.9123°W)
Time: 10:56:27
(UTC+00:00)

Vanguard 3 - Pass Details

Date: 19 May 2026
Orbit: 507 x 3204 km, 33.3° (Epoch: 11 June)

Event Time Altitude Azimuth Distance (km) Brightness Sun altitude
Rises 19:39:06 0° 262° (W) 6,515 12.3 54.4°
Reaches altitude 10° 19:43:03 10° 262° (W) 5,726 12.3 53.7°
Maximum altitude 20:02:05 79° 180° (S) 3,231 11.2 50.1°
Drops below altitude 10° 20:19:43 10° 97° (E) 5,366 11.0 46.6°
Sets 20:23:16 0° 96° (E) 6,108 11.2 45.9°
